CAPE
0 0 0 0 0 0 0 0 0 0 0 0 4 25 65 51 57 12 10 61 212 416 402 423 323 308 376 979 1134 1055 999 1026 1055 1094 1102 1108 1056 1068 1088 1062 1072 1161 1199 1224 1273 1271 1268 1314 1464 1534 1558 1652 1684 1834 2014 2206 2275 2418 2385 2478 2788 3108 3096 3056 2993 2879 2653 2516 2532 2713 2701 2545 2605 2972 3033 3144 3040 2878 2752 2856 2998 2914 2499 2298 2279 2116
0 0 0 0 0 0 0 0 0 0 0 0 0 7 24 14 31 23 25 12 140 246 400 411 236 234 320 776 1137 1114 1026 1081 1063 1084 1121 1109 1126 1142 1147 1134 1153 1200 1145 1114 1174 1163 1196 1185 1236 1388 1539 1626 1704 1844 1905 2013 2116 2332 2323 2447 2614 2900 2993 2784 2854 2944 2980 3064 2878 2807 2618 2403 2283 2756 2908 2915 3199 3042 2962 2960 2788 2688 2546 2330 2355 2434
0 0 0 0 0 0 0 0 0 0 0 0 0 0 1 0 0 0 11 1 84 115 325 144 275 257 227 494 1007 1172 1141 1178 1107 1097 1139 1200 1180 1202 1172 1223 1223 1191 1200 1101 1089 1120 1084 1059 1081 1224 1425 1563 1640 1820 1824 1972 2131 2283 2366 2410 2622 2731 2858 2777 2747 2928 2975 3052 2971 2718 2598 2537 2361 2760 2782 2624 2918 3605 3284 3149 2838 2457 2555 2456 2572 2434
0 0 0 0 0 0 0 0 0 0 0 0 0 0 0 0 0 1 0 2 27 48 144 128 77 205 141 426 782 1127 1181 1238 1211 1110 1125 1142 1264 1247 1197 1216 1264 1222 1262 1158 1078 1015 1020 1044 1070 1064 1266 1481 1582 1794 1824 1906 2119 2245 2296 2386 2551 2658 2738 2801 2797 2699 2878 3047 3101 2884 2885 2822 2545 2662 3186 3508 3463 3358 3236 3042 2922 2750 2884 2852 2631 2412
0 0 0 0 0 0 0 0 0 0 0 0 0 0 0 0 0 0 0 0 32 18 18 50 64 88 232 332 574 912 1071 1140 1152 1085 1050 1025 1080 1214 1225 1196 1244 1253 1269 1252 1141 1029 972 1009 1005 1066 1148 1249 1503 1726 1800 1886 1939 2177 2288 2408 2462 2558 2629 2777 2791 2809 2852 2908 2968 2972 2912 2808 2918 2730 2975 3098 2966 3021 3034 2911 2976 3003 2974 2905 2582 2552
0 0 0 0 0 0 0 0 0 0 0 0 0 0 0 0 0 0 0 0 2 17 23 28 54 57 349 186 400 756 906 1055 1074 1052 1031 1031 945 959 1066 1116 1092 1128 1194 1280 1241 1131 1011 1022 1048 1090 1160 1174 1307 1550 1766 1851 1914 2134 2216 2408 2516 2558 2618 2722 2846 2894 2856 2721 2908 2843 2705 2602 2572 2682 2673 2798 2900 2725 2738 2692 2771 3113 2618 2785 2699 2725
0 0 0 0 0 0 0 0 0 0 0 0 0 0 0 0 0 0 0 0 8 14 52 33 26 46 154 293 507 840 863 948 1045 983 969 1008 988 880 908 962 980 953 961 1009 1088 1128 1073 1045 1067 1111 1146 1114 1125 1380 1632 1805 1893 2118 2252 2422 2482 2460 2528 2631 2813 2881 2768 2695 2890 2822 2718 2668 2734 2684 2809 3122 2859 2785 3064 3096 3148 3234 2617 2662 2819 2672
0 0 0 0 0 0 0 0 0 0 0 0 0 0 0 0 0 0 2 0 40 89 59 25 8 22 45 77 385 712 766 846 958 960 931 863 950 845 820 812 902 878 859 875 886 940 1018 1114 1066 1092 1099 1115 1096 1278 1486 1676 1812 2113 2258 2370 2418 2461 2454 2637 2788 2798 2791 2764 2910 2832 2811 2879 2959 2800 3039 3038 2983 3037 3196 3126 3030 3026 2616 2452 2532 2460
0 0 0 0 0 0 0 0 0 0 0 0 0 0 0 0 0 2 5 0 34 9 148 42 0 9 12 108 66 562 650 785 862 941 970 916 864 856 812 747 783 836 846 820 836 842 928 1072 1132 1232 1310 1197 1141 1227 1456 1559 1758 1995 2168 2288 2396 2460 2482 2654 2751 2796 2847 2766 2958 2897 2870 2993 2934 2993 3123 2931 2495 2475 2558 2761 2958 2878 2427 2275 2445 2459
0 0 0 0 0 0 0 0 0 0 0 0 0 0 0 0 0 2 2 4 5 2 33 89 16 13 33 322 143 306 528 767 842 918 932 974 913 851 804 773 740 805 863 809 786 832 913 1036 1102 1134 1298 1296 1249 1297 1456 1494 1691 1868 2071 2236 2377 2392 2457 2614 2743 2743 2942 2843 2969 2984 3034 3006 3108 3089 3039 2656 2304 2324 2422 2570 2802 2712 2258 2101 2340 2362
0 0 0 0 0 0 0 0 0 0 0 0 0 0 0 0 0 1 11 29 17 0 1 65 38 7 0 114 196 201 449 568 702 930 944 948 932 881 870 792 774 803 893 843 758 771 929 1001 1103 1115 1196 1420 1430 1376 1512 1508 1624 1750 1950 2146 2296 2398 2497 2668 2722 2760 2916 2930 2952 2983 3040 3006 3138 3101 2879 2338 2218 1974 1892 2285 2574 2614 2330 2116 2215 1924
0 0 0 0 0 0 0 0 0 0 0 0 0 0 0 0 0 0 0 2 0 0 0 0 46 26 0 2 264 414 662 614 682 708 865 787 818 860 877 812 788 874 979 912 795 762 842 1030 1130 1160 1182 1412 1695 1602 1563 1443 1637 1798 1968 2137 2324 2477 2590 2710 2697 2788 2837 2882 2967 2991 3113 3109 3177 3220 2718 2439 2248 1824 1732 2048 2367 2523 2610 2298 2155 1584
0 0 0 0 0 0 0 0 0 0 0 0 0 0 0 0 0 0 0 0 0 0 0 0 19 10 0 18 244 121 257 322 464 502 653 760 721 772 794 822 796 857 980 980 952 932 906 1117 1222 1169 1296 1639 1832 1795 1687 1584 1600 1862 2146 2235 2362 2593 2647 2754 2750 2806 2874 2996 3015 3038 3042 3120 3304 3280 2777 2510 2308 1792 1773 1883 2131 2068 2073 1898 1418 1352
0 0 0 0 0 0 0 0 0 0 0 0 0 0 0 0 0 0 0 1 0 0 0 0 5 0 34 78 76 68 71 84 117 306 431 547 742 749 782 791 734 868 910 1036 1052 997 1101 1302 1305 1400 1485 1638 1717 1826 1865 1846 1816 2103 2257 2349 2413 2639 2828 2817 2855 2813 2968 3036 3094 3167 3134 3142 3216 3170 2710 2380 2138 1658 1659 1682 1797 1632 1593 1374 1049 1070
0 0 0 0 0 0 0 0 0 0 0 0 0 0 0 0 0 0 0 0 0 0 0 0 0 0 0 16 38 74 92 109 78 61 126 344 257 488 475 530 595 700 867 1158 1208 1094 1175 1441 1468 1567 1754 1692 1733 1776 1881 2012 2158 2440 2362 2578 2568 2724 2966 2894 2880 2879 2964 3064 3125 3218 3150 3115 3049 2930 2425 2116 1792 1503 1361 1403 1394 1462 1335 1110 1054 1171
0 0 0 0 0 0 0 0 0 0 0 0 0 0 0 0 0 0 0 0 0 0 0 0 0 6 0 153 12 8 0 1 0 8 28 82 159 225 322 434 454 565 748 1026 1144 1188 1291 1436 1684 1655 1683 1687 1726 1876 1879 2161 2376 2344 2444 2676 2731 2798 3039 2905 2884 2910 3032 3111 3168 3194 3142 2977 2836 2530 2236 1951 1492 1454 1488 1444 1108 1180 1212 1122 1252 1208
0 0 0 0 0 0 0 0 0 0 0 0 0 0 0 0 0 6 0 0 0 0 0 0 0 0 0 0 0 4 11 10 27 5 16 55 76 324 314 380 434 486 638 873 1046 1199 1449 1477 1696 1697 1740 1626 1623 1820 2000 2365 2496 2418 2571 2722 2844 2925 3062 2981 2905 2965 3008 3176 3174 3190 3073 2886 2559 2262 1942 1802 1527 1460 1550 1422 985 993 858 987 1113 980
0 0 0 0 0 0 0 0 0 0 0 0 0 0 0 0 12 0 0 24 0 0 4 0 0 0 0 0 506 3 0 5 38 69 18 82 225 220 232 552 586 552 654 956 1232 1492 1553 1465 1636 1676 1687 1606 1681 1801 2104 2606 2560 2605 2726 2687 2848 2963 3047 3068 2965 2936 3010 3106 3162 3164 3005 2760 2386 2035 1902 1794 1596 1528 1582 1336 835 746 795 719 645 736
0 0 0 0 0 0 0 0 0 0 0 0 0 0 0 0 0 118 15 0 0 0 0 0 0 0 0 0 0 0 4 32 189 364 40 64 70 108 280 544 699 650 635 834 958 1284 1349 1497 1661 1809 1700 1640 1790 2056 2341 2587 2582 2615 2665 2621 2645 2872 2906 3048 2916 2964 3023 3026 3046 3042 2878 2608 2184 1889 1796 1715 1612 1584 1627 1375 566 479 566 600 633 737
0 0 0 0 0 0 0 0 0 0 0 0 0 0 0 0 12 0 0 52 0 0 0 0 0 0 0 0 0 0 6 430 188 227 102 30 82 244 321 362 661 777 820 820 840 1126 1302 1410 1516 1724 1775 1746 1878 2155 2215 2223 2237 2243 2406 2624 2689 2786 2996 3066 3050 3034 3060 3014 3021 2934 2648 2380 2006 1780 1707 1637 1599 1616 1667 1482 666 442 592 637 466 556
0 0 0 0 0 0 0 0 0 0 0 0 0 0 0 0 0 2 0 0 0 0 0 0 0 0 0 0 0 0 46 223 297 291 536 392 67 129 331 449 702 807 857 857 982 1083 1222 1289 1368 1593 1788 1874 1974 2125 1984 1940 2104 2133 2242 2512 2604 2807 2906 3006 3006 3008 3083 3046 3026 2951 2528 2188 1875 1800 1642 1591 1577 1642 1684 1494 822 492 482 553 382 455
0 0 0 0 0 0 0 0 0 0 0 0 0 0 0 0 0 0 0 0 0 0 2 0 0 0 0 0 0 27 29 70 254 294 534 402 294 176 268 394 818 866 982 1010 1020 1065 1163 1352 1480 1628 1859 2030 2110 2063 1981 1988 2116 2178 2282 2417 2499 2480 2711 2627 2914 3111 3166 3168 3009 2847 2489 2082 1878 1717 1579 1548 1613 1696 1740 1544 908 601 590 344 361 304
0 0 0 0 0 0 0 0 0 0 0 0 0 0 0 0 0 0 0 0 0 0 0 6 0 0 104 0 0 0 1 0 48 42 74 106 265 233 208 133 682 1022 932 820 962 971 1176 1547 1641 1862 2171 2329 2354 2332 2193 2226 2224 2287 2423 2509 2566 2574 2673 2637 2901 3123 3261 3189 2922 2738 2422 1946 1806 1611 1475 1549 1704 1766 1744 1560 971 422 356 296 211 250
0 0 0 0 0 0 0 0 0 0 0 0 0 0 0 0 0 0 0 63 0 0 0 0 0 0 3 153 0 0 280 293 98 5 73 88 174 228 93 127 750 936 1110 1005 992 1044 1452 1787 1954 2268 2535 2603 2564 2583 2493 2509 2480 2467 2527 2505 2537 2670 2794 2844 2898 3056 3253 3140 2845 2614 2241 1914 1770 1578 1488 1527 1726 1816 1768 1564 967 288 337 218 56 0
0 3 0 0 0 0 0 0 0 0 0 0 0 0 0 0 0 0 0 16 0 0 0 0 0 0 0 442 72 35 0 0 0 14 80 210 563 252 227 489 718 1114 1254 1103 1253 1450 1637 1663 2113 2466 2432 2664 2757 2654 2758 2755 2704 2619 2707 2650 2639 2781 2860 2984 2998 3050 3095 3047 2741 2388 2059 1869 1696 1560 1462 1496 1554 1760 1744 1533 964 148 208 101 88 8
0 0 0 0 0 0 0 0 0 0 0 0 0 0 0 0 0 0 0 0 0 78 4 0 0 0 272 198 2 27 16 28 21 30 30 66 461 275 278 486 1024 1077 1308 1330 1535 1626 1444 2051 2446 2538 2662 2718 2621 2584 2865 2888 2740 2683 2774 2828 2761 2793 2870 2965 3050 3022 3037 2884 2592 2213 1987 1820 1638 1488 1415 1348 1502 1688 1733 1482 1020 250 188 120 54 17
0 0 0 0 0 0 0 0 0 0 0 0 0 0 0 0 0 0 6 0 0 8 0 0 0 0 0 0 8 4 113 55 36 271 334 418 308 399 656 796 850 1168 1340 1132 1550 1710 2185 2148 2212 2446 2628 2562 2462 2644 2816 2722 2674 2644 2844 2874 2732 2772 2898 3055 3098 3096 2973 2770 2414 2153 2046 1864 1624 1425 1308 1170 1388 1614 1728 1602 913 219 140 90 28 5
62 0 0 0 0 0 0 0 0 0 0 0 0 0 0 0 0 0 0 0 46 0 0 0 0 0 0 2 65 187 174 386 520 689 586 621 600 438 441 824 657 763 979 1424 1502 1608 1800 2198 2411 2437 2544 2502 2573 2764 2688 2730 2760 2786 2892 2826 2770 2714 2808 2974 3096 3135 2968 2672 2338 2169 2085 1931 1697 1446 1254 1170 1188 1493 1669 1635 1088 353 320 162 27 38
10 0 0 0 0 0 0 0 0 0 0 0 0 0 0 0 0 0 0 0 14 0 0 0 0 0 14 0 21 164 338 392 164 442 406 644 450 445 405 324 419 573 886 1031 1500 1854 2010 2149 2386 2348 2418 2489 2499 2537 2615 2624 2673 2815 2855 2702 2804 2668 2742 2935 3136 3144 2956 2636 2346 2202 2093 1976 1782 1557 1216 1071 1111 1324 1440 1473 944 353 313 134 3 17
10 3 9 0 0 0 0 0 0 0 0 0 0 0 0 0 0 0 0 0 0 0 0 13 32 0 0 0 1 76 370 220 467 438 174 120 196 491 386 624 558 625 707 977 1342 1467 1868 2069 2332 2415 2436 2500 2406 2520 2479 2608 2749 2724 2696 2690 2718 2729 2696 3132 3226 3202 2894 2599 2418 2251 2108 2027 1902 1700 1426 1070 866 996 1056 1211 1197 679 184 5 73 242
10 19 279 0 0 0 0 0 0 0 0 0 0 0 0 0 0 0 0 0 0 0 0 0 163 102 0 44 39 469 542 63 44 10 42 274 439 409 521 543 638 674 728 1066 1555 1422 1685 1931 2129 2320 2362 2392 2398 2490 2506 2598 2558 2556 2364 2512 2552 2710 2835 3109 3274 3216 2862 2609 2412 2179 2116 2077 2019 1947 1798 1563 1208 866 870 1217 521 632 453 222 0 147
28 153 13 8 0 0 0 0 0 0 0 0 0 0 0 0 0 0 0 0 0 0 0 0 0 0 0 0 0 19 115 230 131 339 473 497 334 640 660 707 805 870 856 974 1131 1302 1552 1624 1922 2012 2111 2169 2286 2445 2468 2526 2481 2390 2263 2480 2546 2505 2690 2860 3005 3011 2836 2604 2347 2097 2095 2083 2061 2002 1928 1784 1650 1429 1298 1160 899 577 432 230 208 242
161 32 35 32 7 2 1 0 0 0 0 0 0 0 0 0 0 0 0 0 0 0 0 0 0 0 0 131 10 34 12 124 246 274 492 563 634 549 828 946 870 911 1024 1095 1234 1340 1295 1305 1564 1834 1833 1951 2000 2144 2204 2459 2262 2353 2424 2537 2618 2546 2842 2938 2983 2969 2803 2499 2224 2006 2018 2008 1996 1969 1886 1784 1666 1605 1538 1169 932 558 224 196 397 436
23 27 45 42 14 39 34 0 0 0 0 0 0 0 0 0 0 0 0 0 0 0 0 0 0 0 62 125 0 119 140 261 394 711 619 729 868 830 753 1092 1016 900 835 831 1135 1217 1342 1413 1410 1595 1940 2096 2044 1962 2150 2071 2171 2388 2524 2689 2916 2945 2969 2962 2926 2874 2705 2435 2118 1908 1887 1884 1895 1889 1835 1743 1683 1638 1630 1624 1281 930 628 694 653 629
53 35 44 51 28 12 56 0 0 0 0 1 79 4 0 0 0 0 0 0 0 0 0 0 1 36 126 12 79 161 171 942 130 175 102 54 236 476 656 620 912 789 868 1145 1187 1034 1431 1546 1612 1693 1867 1755 1633 1940 2114 2060 2045 2338 2412 2598 2731 2907 2982 2892 2880 2678 2552 2256 1982 1759 1777 1804 1795 1796 1770 1723 1668 1589 1540 1574 1100 1191 1031 696 509 548
38 16 38 34 30 16 19 12 11 24 40 33 0 10 0 0 0 0 0 0 7 0 0 0 0 0 157 172 92 254 248 116 100 150 147 125 285 386 342 466 550 613 908 901 1243 1552 1677 1339 1514 1424 1701 1741 2053 1908 1820 2000 1875 1908 2304 2587 2726 2842 2796 2768 2692 2532 2296 2076 1727 1662 1698 1716 1727 1706 1717 1671 1586 1478 1460 1423 1157 1019 759 536 358 294
4 18 42 69 32 48 182 20 28 144 19 19 29 34 20 16 0 0 0 0 19 2 0 0 0 71 55 30 42 31 110 61 249 212 15 40 86 152 433 607 576 791 1120 1298 1120 1500 2028 1896 2012 1745 2203 1956 1810 1920 1887 2033 1864 2100 2380 2399 2580 2718 2620 2525 2486 2358 2090 1822 1558 1545 1562 1592 1605 1625 1620 1588 1497 1412 1368 1344 1378 975 706 442 361 278
294 19 82 64 71 11 24 13 49 17 2 91 64 74 24 2 17 67 66 80 70 32 0 0 55 122 207 54 2 80 221 68 58 176 180 168 60 123 185 480 572 784 1062 1177 2035 1990 2077 2119 2115 2090 1718 1818 2104 2475 2438 2137 2163 2375 2431 2535 2569 2526 2450 2302 2288 2155 1874 1680 1409 1412 1433 1437 1458 1492 1498 1515 1474 1386 1314 1292 1136 713 464 375 165 1
31 47 550 56 81 20 24 11 9 30 69 448 238 100 76 17 15 64 3 1 292 55 31 36 58 256 295 197 227 182 103 60 196 309 490 398 194 154 460 528 582 841 1143 1288 1518 1838 2123 2407 2290 2016 2203 2154 2060 1838 2039 2226 2336 2325 2473 2488 2380 2318 2238 2159 2128 1875 1676 1557 1312 1305 1308 1323 1365 1396 1417 1450 1414 1319 1214 1159 900 580 235 106 139 62
598 442 90 124 55 38 23 2 6 82 121 261 129 88 60 74 6 28 7 13 320 77 119 79 94 197 211 310 250 305 206 192 393 299 581 1042 796 1066 1337 1328 1339 1284 1413 1688 1898 2092 2047 1986 2064 2172 2042 1791 1501 1432 1804 1936 2088 2333 2346 2208 2020 2059 2102 1976 1846 1666 1508 1315 1261 1267 1266 1282 1302 1332 1358 1350 1337 1242 1088 933 707 407 106 114 144 203
301 590 315 70 42 26 16 21 132 244 412 202 41 40 54 85 71 125 17 251 236 227 72 26 66 70 186 162 118 358 294 1020 1234 1162 1361 1371 1243 1413 1615 1700 1787 1800 1733 1615 1532 1546 1694 1718 1834 1754 1577 1390 1315 1372 1552 1842 1956 1837 1740 1775 1878 1978 1888 1747 1551 1359 1285 1224 1237 1228 1220 1228 1222 1267 1264 1245 1213 1148 870 680 388 106 113 152 198 331
655 643 340 22 34 35 16 11 19 202 180 5 32 16 84 2 46 138 402 5 64 65 17 14 8 10 89 468 556 1089 1449 1260 1309 1473 1775 1833 1912 1852 1619 1574 1484 1409 1396 1412 1410 1370 1344 1282 1295 1208 1114 1148 1200 1155 1339 1677 1786 1546 1577 1628 1816 1852 1506 1380 1280 1212 1141 1163 1142 1184 1170 1163 1197 1176 1186 1153 1107 1092 726 406 250 186 222 228 374 556
393 26 274 26 546 24 12 50 4 27 454 4 210 278 215 219 569 174 166 156 102 242 291 474 414 580 985 1242 1450 1523 1395 1387 1549 1732 1861 1983 2088 2105 2048 2002 1869 1665 1584 1500 1342 1302 1410 1476 1366 1148 882 993 1097 1334 1348 1582 1624 1551 1430 1746 1739 1301 1159 1176 1120 1116 1124 1161 1192 1173 1131 1102 1102 1122 1133 1122 1142 983 713 397 292 325 445 500 554 677
271 0 300 499 670 797 476 276 63 344 78 13 0 210 348 240 148 230 445 465 530 588 754 828 1013 1202 1356 1504 1418 1433 1469 1445 1526 1639 1602 1593 1708 1958 2154 2305 2250 1939 1508 1190 1097 1212 1383 1193 874 853 1012 1106 1148 1292 1388 1648 1653 1542 1678 1796 1235 1147 1104 1100 1150 1194 1206 1170 1179 1123 1086 1058 1033 1044 1032 1054 1060 1002 819 531 332 478 660 807 968 1187
309 499 138 5 207 304 587 753 60 67 103 120 65 2 181 421 630 641 727 722 695 693 839 823 791 821 928 1082 1231 1188 1164 1249 1360 1424 1580 1570 1561 1473 1369 1440 1653 1702 1639 1376 1096 1075 1174 1178 1021 977 1080 1227 1363 1508 1496 1652 1867 1696 1928 1400 1128 1078 1095 1184 1218 1243 1202 1181 1155 1092 1032 978 964 980 967 966 943 903 760 632 473 587 871 1096 1133 1340
112 223 147 600 102 262 14 17 30 144 177 174 114 347 330 329 323 314 319 251 276 323 332 445 488 600 824 1012 838 918 1017 1032 1074 1070 1248 1504 1665 1954 1886 1723 1685 1650 1620 1471 1202 1036 1013 1061 1136 1175 1248 1319 1540 1638 1676 1706 1812 2124 1792 1213 1100 1104 1192 1234 1255 1234 1203 1164 1115 1048 955 900 869 864 852 825 788 786 770 708 505 548 836 858 998 1063
261 3 54 402 343 79 21 320 74 64 121 108 121 89 85 86 69 55 51 81 84 50 40 138 132 75 164 460 594 663 658 789 816 1020 1249 1354 1251 1594 1889 2255 2166 2070 2094 1823 1493 1335 1317 1232 1261 1372 1338 1482 1562 1531 1625 1559 1484 1700 1228 1122 1091 1145 1187 1198 1188 1175 1142 1100 1086 1040 950 851 810 785 764 748 751 770 779 736 596 522 629 758 916 1095
450 131 36 201 210 222 12 116 52 65 114 80 71 63 58 64 46 36 22 34 112 112 131 122 123 94 128 183 466 480 540 724 1000 1099 960 1149 1336 1445 1533 1609 1873 1926 1500 1672 1597 1546 1589 1668 1616 1448 1360 1495 1479 1550 1474 1383 1312 1259 1166 1089 1141 1185 1214 1142 1030 981 959 975 991 1000 964 876 768 730 726 697 714 775 788 795 736 604 796 830 1008 1133
202 6 168 6 151 0 5 150 0 0 3 96 31 19 21 24 2 0 0 29 36 83 94 90 107 97 93 111 384 500 584 595 856 1058 941 1242 1468 1438 1386 1496 1479 1509 1629 1754 1658 1716 1934 1670 1516 1393 1353 1336 1358 1378 1405 1257 1197 1154 1121 1140 1202 1297 1244 1064 872 836 858 777 803 858 876 857 810 773 903 948 716 746 700 771 784 882 650 458 758 976
3 68 2 23 128 20 170 0 1 0 0 0 0 20 0 0 0 14 0 0 13 81 80 80 37 0 56 76 118 129 116 145 138 519 434 1052 1324 1401 1332 1190 1119 1176 1326 1305 1348 1414 1443 1472 1555 1345 1177 1139 1152 1176 1195 1191 1168 1147 1151 1212 1302 1310 1180 1011 928 927 940 877 851 779 740 741 856 764 749 710 589 589 626 699 791 827 770 718 638 517
150 87 53 3 42 70 67 0 0 0 0 0 0 0 0 0 9 37 34 0 0 26 63 49 60 68 100 120 101 110 133 140 109 74 64 47 707 1068 1139 1112 1136 1138 1162 1166 1281 1347 1489 1389 1317 1282 1138 1058 946 983 1028 1120 1128 1170 1213 1304 1392 1203 1001 1002 922 782 743 698 666 689 766 660 720 765 768 621 70 427 452 476 477 493 497 408 392 467
Wind_Speed
nan nan nan nan nan nan nan nan nan nan nan nan nan nan nan nan nan nan nan nan 11 14 19 17 17 16 12 9 12 14 14 15 14 13 11 11 10 9 8 10 11 12 12 10 12 13 13 13 9 8 7 7 7 7 7 8 8 8 7 7 6 6 7 7 7 7 8 8 8 6 7 6 6 6 6 6 6 6 7 7 8 10 10 12 13 13
nan nan nan nan nan nan nan nan nan nan nan nan nan nan nan nan nan nan nan nan 11 13 16 16 18 18 16 12 12 12 14 18 18 15 13 13 12 10 11 11 12 11 5 7 7 10 12 11 12 9 6 7 8 7 7 8 8 8 8 7 6 6 7 7 8 8 7 7 6 6 6 5 5 6 6 6 7 7 7 8 9 10 12 11 12 14
nan nan nan nan nan nan nan nan nan nan nan nan nan nan nan nan nan nan nan nan nan 13 17 12 16 18 15 15 13 13 16 16 17 16 13 11 12 10 10 12 11 9 9 9 10 10 10 13 12 9 7 6 7 7 7 7 8 8 7 6 6 6 7 7 8 7 6 6 5 6 5 6 5 5 5 6 6 9 11 12 12 11 12 13 13 14
nan nan nan nan nan nan nan nan nan nan nan nan nan nan nan nan nan nan nan nan nan nan 18 13 nan 19 16 14 14 13 14 13 12 14 11 10 11 12 13 12 11 12 11 12 12 12 11 11 10 8 7 6 6 5 6 7 8 7 6 6 7 6 7 7 8 7 6 6 6 6 4 5 6 6 9 9 11 12 14 14 15 14 15 17 17 17
nan nan nan nan nan nan nan nan nan nan nan nan nan nan nan nan nan nan nan nan nan nan nan nan nan nan 14 13 12 11 11 12 12 11 11 10 10 11 9 9 10 12 13 12 12 12 11 11 11 10 9 7 6 6 6 7 7 5 8 8 9 8 8 7 8 9 9 9 8 8 8 8 9 9 10 12 13 15 16 16 17 18 19 20 20 21
nan nan nan nan nan nan nan nan nan nan nan nan nan nan nan nan nan nan nan nan nan nan nan nan nan nan 13 14 14 6 6 12 9 10 13 12 11 10 12 12 12 12 12 13 13 12 12 12 10 9 9 9 8 7 7 7 7 7 7 8 9 8 8 8 10 11 11 11 12 12 12 12 13 13 14 16 17 17 18 17 18 21 21 23 23 23
nan nan nan nan nan nan nan nan nan nan nan nan nan nan nan nan nan nan nan nan nan nan nan nan nan nan 19 16 13 7 6 9 3 11 12 11 10 12 12 12 12 14 13 12 10 9 10 10 10 10 10 11 10 10 8 7 7 8 7 8 10 10 9 10 11 13 13 13 14 15 16 16 17 17 17 18 18 18 20 20 22 25 25 26 26 26
nan nan nan nan nan nan nan nan nan nan nan nan nan nan nan nan nan nan nan nan nan nan nan nan nan nan nan nan 14 9 8 8 7 12 13 11 12 15 15 14 13 14 15 13 13 11 9 9 11 12 12 11 11 10 10 9 8 9 9 9 10 10 10 11 13 15 15 15 16 17 17 17 18 18 18 21 21 21 22 23 25 27 28 27 26 27
nan nan nan nan nan nan nan nan nan nan nan nan nan nan nan nan nan nan nan nan nan nan 24 nan nan nan nan 22 nan 11 10 8 10 14 13 14 12 13 17 16 16 17 17 15 11 11 11 10 11 11 11 10 10 10 11 10 10 11 10 11 11 11 12 12 15 15 16 16 17 17 17 17 17 18 18 21 22 23 24 24 25 26 26 25 25 25
nan nan nan nan nan nan nan nan nan nan nan nan nan nan nan nan nan nan nan nan nan nan nan nan nan nan nan 23 23 18 12 7 12 13 14 12 11 13 16 18 19 17 15 14 13 10 10 11 11 11 10 10 10 11 12 11 11 12 12 12 13 12 12 13 16 16 17 17 17 17 17 18 19 20 21 22 23 23 23 22 23 23 23 23 24 25
nan nan nan nan nan nan nan nan nan nan nan nan nan nan nan nan nan nan nan nan nan nan nan nan nan nan nan 19 18 19 7 6 11 11 9 8 8 14 16 17 18 17 15 13 13 11 11 12 12 12 12 11 12 13 15 14 13 13 14 15 15 14 14 16 17 18 18 18 17 17 17 19 19 22 22 21 21 21 22 21 21 22 22 24 25 26
nan nan nan nan nan nan nan nan nan nan nan nan nan nan nan nan nan nan nan nan nan nan nan nan nan nan nan nan 17 8 10 8 8 9 5 5 11 16 15 13 15 15 14 14 13 13 13 14 14 15 13 13 15 16 16 15 15 15 15 15 16 15 16 17 18 18 18 18 17 16 18 19 19 22 21 21 21 22 22 22 22 22 23 25 26 27
nan nan nan nan nan nan nan nan nan nan nan nan nan nan nan nan nan nan nan nan nan nan nan nan nan nan nan nan 18 14 13 13 10 9 6 4 11 12 10 8 7 10 14 14 13 14 15 17 18 18 16 14 15 15 16 15 15 15 15 16 16 16 17 18 19 19 19 18 16 17 18 19 19 21 22 22 22 24 23 23 24 25 25 26 27 28
nan nan nan nan nan nan nan nan nan nan nan nan nan nan nan nan nan nan nan nan nan nan nan nan nan nan nan nan nan nan nan nan 7 6 8 10 7 3 3 1 4 6 11 14 14 15 16 18 18 18 16 14 12 14 15 15 15 15 15 17 17 17 19 20 20 20 19 18 17 17 18 19 20 21 22 22 23 25 25 27 28 29 30 30 30 31
nan nan nan nan nan nan nan nan nan nan nan nan nan nan nan nan nan nan nan nan nan nan nan nan nan nan nan nan nan nan nan 17 nan nan 6 10 10 8 4 6 7 9 10 10 12 15 17 17 18 17 16 15 14 15 16 16 16 17 17 19 19 19 20 21 22 20 19 16 17 17 18 19 20 22 24 24 25 27 28 29 31 32 33 33 32 32
nan nan nan nan nan nan nan nan nan nan nan nan nan nan nan nan nan nan nan nan nan nan nan nan nan nan nan 22 nan nan nan nan nan nan nan nan 13 14 13 12 11 11 13 12 14 15 15 16 18 17 18 17 16 17 16 18 19 19 19 21 22 22 22 23 22 19 17 16 16 18 19 20 22 24 26 26 27 28 30 31 31 32 32 32 33 33
nan nan nan nan nan nan nan nan nan nan nan nan nan nan nan nan nan nan nan nan nan nan nan nan nan nan nan nan nan nan nan nan nan nan nan nan nan 15 11 13 13 12 11 11 13 14 16 17 18 19 20 21 20 19 19 19 20 21 21 22 22 22 22 22 21 19 17 16 17 18 20 22 24 27 28 29 31 32 31 31 31 31 31 32 33 34
nan nan nan nan nan nan nan nan nan nan nan nan nan nan nan nan nan nan nan nan nan nan nan nan nan nan nan nan 24 nan nan nan nan nan nan nan 14 10 12 15 16 16 15 14 15 16 19 20 21 21 22 25 25 24 22 20 20 19 19 20 21 20 19 18 18 18 17 17 17 18 21 24 26 27 29 30 32 33 33 33 32 32 32 33 34 36
nan nan nan nan nan nan nan nan nan nan nan nan nan nan nan nan nan 49 nan nan nan nan nan nan nan nan nan nan nan nan nan nan 8 8 nan nan nan 13 14 16 18 19 16 16 16 15 16 17 19 22 24 26 25 24 22 20 19 16 15 15 16 17 16 16 16 15 14 15 15 18 23 26 27 27 29 30 32 33 35 37 37 36 35 35 35 37
nan nan nan nan nan nan nan nan nan nan nan nan nan nan nan nan nan nan nan nan nan nan nan nan nan nan nan nan nan nan nan 11 10 8 13 nan nan 12 13 15 19 20 18 17 16 16 17 19 23 27 27 27 27 25 22 21 19 18 15 13 12 12 12 14 14 14 15 16 17 20 23 25 27 30 31 33 34 34 37 39 40 38 37 37 37 37
nan nan nan nan nan nan nan nan nan nan nan nan nan nan nan nan nan nan nan nan nan nan nan nan nan nan nan nan nan nan nan 8 4 4 8 9 nan 13 14 16 18 19 16 15 15 16 18 20 23 26 27 25 24 23 22 19 18 16 13 12 13 13 13 13 12 13 13 16 18 22 25 27 29 32 33 36 37 37 38 39 40 40 39 39 39 40
nan nan nan nan nan nan nan nan nan nan nan nan nan nan nan nan nan nan nan nan nan nan nan nan nan nan nan nan nan nan nan nan 7 7 6 5 8 12 14 16 16 17 17 16 16 18 18 21 23 26 27 24 22 22 21 17 13 12 12 11 12 12 12 13 13 14 15 17 19 23 25 28 29 33 35 38 39 39 39 39 39 40 41 42 42 42
nan nan nan nan nan nan nan nan nan nan nan nan nan nan nan nan nan nan nan nan nan nan nan nan nan nan 42 nan nan nan nan nan nan nan nan 6 6 14 16 16 17 19 20 16 16 17 19 23 25 28 30 27 23 20 19 15 12 11 13 12 12 14 14 15 16 15 16 19 22 25 26 28 31 34 37 39 40 41 40 39 38 40 42 42 44 43
nan nan nan nan nan nan nan nan nan nan nan nan nan nan nan nan nan nan nan nan nan nan nan nan nan nan nan 38 nan nan 19 23 nan nan nan nan 9 16 nan 18 20 21 20 17 17 20 22 25 26 27 27 23 19 16 15 13 12 11 12 13 13 16 17 17 17 17 20 23 25 27 27 29 33 38 39 39 39 43 43 40 39 40 41 42 nan nan
nan nan nan nan nan nan nan nan nan nan nan nan nan nan nan nan nan nan nan nan nan nan nan nan nan nan nan 39 nan nan nan nan nan nan nan 12 13 16 17 18 20 22 21 17 18 22 25 25 25 26 25 23 21 18 15 15 15 15 15 15 16 17 19 18 18 19 23 26 28 29 30 32 36 38 39 39 39 43 46 44 43 42 43 44 nan nan
nan nan nan nan nan nan nan nan nan nan nan nan nan nan nan nan nan nan nan nan nan nan nan nan nan nan 46 39 nan nan nan nan nan nan nan nan 13 15 16 17 21 23 19 17 20 23 23 24 25 25 23 20 20 19 17 16 16 16 14 15 16 16 18 20 20 22 25 27 29 30 32 34 37 39 41 40 41 45 46 44 43 44 43 43 nan nan
nan nan nan nan nan nan nan nan nan nan nan nan nan nan nan nan nan nan nan nan nan nan nan nan nan nan nan nan nan nan 31 nan nan 18 20 15 13 16 18 20 21 20 19 19 21 21 26 26 25 24 22 19 18 18 17 17 17 16 15 16 17 16 18 20 22 24 25 28 29 29 32 35 38 40 41 41 43 44 44 46 44 43 44 nan nan nan
nan nan nan nan nan nan nan nan nan nan nan nan nan nan nan nan nan nan nan nan nan nan nan nan nan nan nan nan nan 29 29 29 26 24 22 18 15 19 22 25 23 19 18 22 22 22 22 25 26 24 21 18 16 16 16 16 16 16 16 17 17 18 19 21 24 25 27 28 27 29 33 36 39 41 42 44 45 43 44 47 45 43 45 42 nan nan
nan nan nan nan nan nan nan nan nan nan nan nan nan nan nan nan nan nan nan nan nan nan nan nan nan nan nan nan nan 28 28 27 24 20 18 19 24 24 22 18 15 16 18 19 18 20 23 25 25 23 20 17 17 16 16 16 16 16 17 17 17 19 21 23 25 26 28 28 27 29 32 35 38 40 43 49 49 46 46 46 44 46 47 43 nan nan
nan nan nan nan nan nan nan nan nan nan nan nan nan nan nan nan nan nan nan nan nan nan nan nan nan nan nan nan nan nan 26 25 23 26 26 16 11 16 14 13 14 17 17 15 16 18 20 23 25 23 20 18 19 18 17 17 18 18 19 19 19 21 22 25 27 27 28 28 28 30 33 37 40 43 47 50 48 51 54 49 44 46 46 nan nan 39
nan nan 42 nan nan nan nan nan nan nan nan nan nan nan nan nan nan nan nan nan nan nan nan nan 50 43 nan nan nan 37 40 nan nan nan nan 13 15 14 12 12 15 15 13 13 17 20 22 24 25 24 22 20 20 20 20 20 19 19 21 21 23 25 27 29 29 29 30 29 29 32 34 38 42 45 50 50 48 50 51 55 53 45 45 51 nan 27
nan 44 nan nan nan nan nan nan nan nan nan nan nan nan nan nan nan nan nan nan nan nan nan nan nan nan nan nan nan nan 34 30 21 15 15 17 15 14 13 13 15 15 15 17 20 22 25 26 27 25 23 23 22 23 23 24 23 24 25 26 28 30 31 32 33 33 33 33 33 35 37 40 43 46 49 50 51 50 51 53 51 46 51 53 38 23
48 nan nan nan nan nan nan nan nan nan nan nan nan nan nan nan nan nan nan nan nan nan nan nan nan nan nan 41 nan nan nan 23 23 23 20 19 20 17 15 16 17 17 19 22 24 25 26 28 28 27 26 26 25 25 26 29 29 29 30 31 32 34 35 36 36 36 37 37 38 40 41 43 46 48 50 51 51 50 48 51 52 46 51 46 27 24
nan nan nan nan nan nan nan nan nan nan nan nan nan nan nan nan nan nan nan nan nan nan nan nan nan nan nan 42 nan 29 27 24 22 25 28 25 21 18 16 19 21 22 24 26 27 28 29 31 30 29 30 30 29 29 31 32 32 32 33 34 35 36 36 37 37 38 39 39 41 44 47 49 50 51 51 51 51 49 49 51 52 47 42 34 27 31
nan nan nan nan nan nan nan nan nan nan nan nan nan nan nan nan nan nan nan nan nan nan nan nan nan nan 39 nan nan 25 26 36 38 33 26 nan 21 21 20 24 25 25 27 31 33 34 34 34 33 33 33 33 33 32 33 32 32 34 36 36 36 36 38 37 38 39 40 41 45 49 51 52 53 53 52 53 53 50 50 51 51 49 43 37 36 38
nan nan nan nan nan nan nan nan nan nan nan nan nan nan nan nan nan nan nan nan nan nan nan nan nan nan 35 32 nan 37 37 38 nan 37 33 27 22 20 22 22 24 25 27 30 35 36 36 34 34 34 34 34 34 34 34 34 36 37 38 38 37 38 38 38 39 40 42 45 49 52 54 54 55 53 52 51 50 48 48 50 51 48 44 41 39 36
nan nan nan nan nan nan 48 nan nan 50 nan nan nan nan nan nan nan nan nan nan nan nan nan nan nan nan nan nan nan nan 37 nan 35 36 nan nan nan 23 23 25 27 30 34 35 35 36 36 35 36 36 38 37 35 35 35 38 39 40 41 39 38 39 39 40 41 43 46 48 51 54 56 57 56 53 51 49 49 48 49 51 50 46 43 41 39 37
60 nan nan nan nan nan nan nan nan nan nan nan nan nan nan nan nan nan nan nan nan nan nan nan nan 34 35 nan nan nan 36 nan nan 32 34 31 nan 26 29 33 35 38 38 38 41 44 43 43 42 41 38 37 36 37 39 41 42 42 41 40 40 41 41 42 44 47 49 51 54 57 59 58 55 51 48 48 48 48 49 50 46 44 43 42 40 nan
nan nan 50 nan nan nan nan nan nan nan nan 50 48 45 nan nan nan nan nan nan 53 nan nan nan nan 36 35 36 39 38 35 nan 31 33 34 32 31 32 35 37 39 43 44 45 45 47 46 44 43 42 42 41 41 40 42 44 45 43 40 39 40 41 42 43 46 50 52 54 56 58 59 55 51 48 46 46 47 49 51 49 45 43 43 42 41 nan
61 55 nan 44 nan nan nan nan nan nan 46 48 47 nan nan nan nan nan nan nan 49 nan 41 nan nan 35 35 36 37 34 32 30 31 34 34 36 38 40 40 42 45 47 48 50 51 49 48 45 45 44 43 44 44 44 46 46 45 44 43 42 41 41 41 45 48 52 55 57 58 57 55 51 48 46 44 45 46 48 49 47 44 43 42 41 40 40
56 56 54 nan nan nan nan nan 47 42 43 48 nan nan nan nan nan 32 nan 51 53 45 nan nan nan nan 39 39 36 36 41 41 43 43 40 41 46 48 47 47 47 48 50 51 51 49 47 44 44 45 46 45 45 44 45 46 48 48 47 45 42 41 43 48 52 55 58 60 58 54 52 48 46 45 44 44 46 47 46 44 42 42 40 40 40 39
52 55 52 nan nan nan nan nan nan 44 44 nan nan nan nan nan nan 30 45 nan nan nan nan nan nan nan nan 41 41 43 43 44 45 43 43 43 48 49 49 49 52 54 54 54 51 49 46 44 45 47 47 46 46 44 45 48 51 51 50 45 42 44 47 51 54 58 60 58 54 50 48 46 45 44 43 44 44 43 41 40 40 39 39 39 39 37
39 nan 49 nan 53 nan nan nan nan nan 43 nan 53 40 35 30 34 33 36 47 50 50 49 49 48 45 44 46 45 44 43 44 46 47 46 45 48 51 51 51 52 51 51 50 48 43 43 44 46 47 48 48 49 47 47 49 51 51 49 45 46 48 52 55 58 59 57 52 47 45 45 44 45 43 41 42 42 40 39 39 39 39 39 39 36 29
35 nan 48 46 39 42 48 44 nan 46 nan nan nan 40 41 34 30 26 32 44 50 50 50 50 51 49 48 47 47 45 43 44 44 44 46 48 48 50 54 54 53 51 52 52 50 47 50 50 50 53 53 53 52 52 50 47 48 49 48 48 49 53 56 59 58 55 50 46 43 44 44 44 44 42 41 42 40 39 39 39 39 39 40 39 34 27
41 34 38 nan 38 34 35 39 nan nan 41 46 nan nan 39 36 30 30 34 41 46 51 49 50 50 49 48 49 50 48 47 45 46 46 48 47 48 51 56 55 55 55 54 54 55 55 55 55 54 55 56 53 53 52 50 47 48 49 49 51 54 57 58 57 54 50 47 44 42 42 43 43 43 42 41 41 40 39 39 39 40 40 40 39 36 33
38 31 34 44 40 37 nan nan nan 38 43 49 48 46 43 39 36 33 35 40 44 48 50 51 51 50 50 49 53 51 49 48 52 52 53 54 55 57 58 58 56 55 53 52 53 55 54 53 53 53 52 51 50 50 49 48 48 50 52 55 56 55 53 52 51 49 46 43 42 42 44 44 43 41 40 40 39 39 39 39 40 41 41 39 38 38
32 nan nan 35 36 nan nan 28 nan nan 44 50 48 nan nan nan nan nan nan nan nan nan nan 52 52 nan 51 53 54 52 53 53 55 54 53 53 55 56 56 53 49 47 46 48 47 49 48 49 50 50 49 49 49 49 49 50 51 53 56 54 52 50 49 48 48 46 45 44 43 44 43 43 42 40 39 38 38 38 38 39 40 40 41 40 40 42
29 33 nan 30 32 40 nan 29 nan nan 47 nan nan nan nan nan nan nan nan nan 49 50 50 50 54 nan 55 56 54 55 54 53 51 48 49 49 47 45 44 43 43 44 45 45 44 45 47 46 47 48 49 50 49 50 51 52 52 53 51 48 46 46 46 45 44 44 45 46 45 44 42 41 41 40 39 38 38 38 39 40 40 41 42 43 44 42
29 nan 29 nan 29 nan nan 36 nan nan nan nan nan nan nan nan nan nan nan nan nan nan nan nan 56 nan nan 56 56 56 55 53 49 47 48 47 46 44 43 43 45 46 46 45 43 43 43 44 46 47 47 47 47 47 49 49 48 47 46 44 44 44 43 44 45 45 46 45 44 43 42 40 41 40 40 41 43 43 42 41 41 41 44 44 42 41
nan nan nan nan 27 nan 28 nan nan nan nan nan nan nan nan nan nan nan nan nan nan nan nan nan nan nan nan nan 58 58 57 53 52 51 52 50 50 48 48 47 47 48 47 45 44 44 45 45 45 43 41 40 39 39 39 41 41 40 40 42 42 43 43 45 45 44 44 43 42 42 42 41 42 43 44 45 45 46 47 50 49 45 42 44 44 40
32 nan nan nan nan nan nan nan nan nan nan nan nan nan nan nan nan nan nan nan nan nan nan nan nan nan nan 57 56 57 55 54 51 nan nan nan 50 49 49 49 49 49 48 45 44 44 44 43 40 38 36 35 36 35 35 36 37 38 38 39 39 40 41 43 43 42 42 43 42 43 44 44 45 47 47 47 nan 46 47 48 51 54 51 46 44 42
Wind_Direction
nan nan nan nan nan nan nan nan nan nan nan nan nan nan nan nan nan nan nan nan 114 119 97 91 97 119 113 111 83 70 61 60 54 44 37 27 17 17 25 30 35 41 47 50 52 49 49 47 45 35 16 9 6 359 350 343 340 330 322 316 322 307 312 310 316 334 350 3 8 6 13 15 8 10 12 15 12 9 7 357 343 340 349 350 350 346
nan nan nan nan nan nan nan nan nan nan nan nan nan nan nan nan nan nan nan nan 128 114 119 120 131 121 135 130 101 77 61 56 49 45 43 35 24 14 18 25 27 30 27 35 44 48 52 56 52 46 38 16 5 356 348 347 340 329 325 323 320 305 312 322 327 326 340 347 352 351 3 6 11 1 3 12 358 356 344 346 345 343 335 339 342 332
nan nan nan nan nan nan nan nan nan nan nan nan nan nan nan nan nan nan nan nan nan 134 130 156 116 117 135 130 108 76 62 62 51 42 42 36 31 26 19 19 17 3 2 6 24 31 44 47 49 50 50 38 26 6 355 348 335 328 324 323 316 311 316 327 335 332 341 339 344 348 342 347 352 347 351 358 342 324 327 328 336 341 331 333 333 336
nan nan nan nan nan nan nan nan nan nan nan nan nan nan nan nan nan nan nan nan nan nan 152 165 nan 136 151 134 106 85 73 73 66 52 48 42 38 31 23 12 6 4 356 0 7 13 19 27 36 39 42 42 35 27 8 358 355 331 325 326 325 323 329 327 334 337 336 331 326 329 324 325 340 329 324 323 316 318 318 322 324 332 327 329 331 330
nan nan nan nan nan nan nan nan nan nan nan nan nan nan nan nan nan nan nan nan nan nan nan nan nan nan 140 125 114 93 76 75 65 53 50 50 50 50 46 27 10 5 356 354 357 1 1 3 13 15 17 18 20 25 19 6 1 331 345 339 337 329 333 330 327 332 320 308 307 305 296 305 306 303 317 321 325 326 324 323 321 324 324 325 327 324
nan nan nan nan nan nan nan nan nan nan nan nan nan nan nan nan nan nan nan nan nan nan nan nan nan nan 142 110 108 131 79 68 61 57 47 40 41 41 42 34 18 17 5 355 352 350 351 352 353 353 349 355 4 11 13 0 360 350 344 339 331 320 320 325 330 327 314 316 314 310 314 319 320 326 329 332 330 327 326 325 318 318 323 322 322 318
nan nan nan nan nan nan nan nan nan nan nan nan nan nan nan nan nan nan nan nan nan nan nan nan nan nan 184 148 137 166 123 94 108 77 64 44 40 35 38 38 27 17 8 4 2 348 345 344 340 344 343 351 358 1 348 341 344 344 337 330 327 319 315 319 319 322 312 317 317 325 328 326 325 328 327 318 319 319 314 311 312 310 316 318 316 315
nan nan nan nan nan nan nan nan nan nan nan nan nan nan nan nan nan nan nan nan nan nan nan nan nan nan nan nan 176 186 156 145 117 87 74 58 41 35 36 37 30 19 10 358 0 355 348 337 335 341 345 341 353 343 325 326 325 329 327 317 317 306 307 306 306 316 316 317 319 325 329 326 327 327 320 313 309 305 303 306 307 305 309 313 316 314
nan nan nan nan nan nan nan nan nan nan nan nan nan nan nan nan nan nan nan nan nan nan 214 nan nan nan nan 185 nan 216 187 162 103 82 72 60 50 40 40 38 34 25 14 6 355 356 347 337 332 326 325 337 336 318 313 318 316 314 314 311 308 306 305 303 310 311 317 317 319 323 324 325 321 319 313 304 303 302 301 305 303 305 309 313 316 316
nan nan nan nan nan nan nan nan nan nan nan nan nan nan nan nan nan nan nan nan nan nan nan nan nan nan nan 198 210 215 192 146 93 83 78 67 47 42 42 36 35 30 23 17 14 1 351 340 335 331 322 315 316 307 305 313 306 302 296 301 304 310 303 301 308 310 315 321 316 319 323 327 315 306 301 299 301 301 301 306 307 308 314 318 319 319
nan nan nan nan nan nan nan nan nan nan nan nan nan nan nan nan nan nan nan nan nan nan nan nan nan nan nan 200 216 234 192 117 129 145 133 110 81 55 46 31 26 25 19 9 3 359 353 341 328 316 316 312 296 289 295 302 302 298 299 303 310 315 304 304 308 312 317 316 317 320 325 327 322 313 308 304 305 302 303 308 309 312 317 321 321 316
nan nan nan nan nan nan nan nan nan nan nan nan nan nan nan nan nan nan nan nan nan nan nan nan nan nan nan nan 212 199 183 161 155 149 146 90 60 53 45 31 16 9 6 2 351 351 346 329 322 317 323 306 293 287 292 299 299 298 299 303 316 317 314 308 311 316 320 318 324 326 327 328 325 317 311 315 314 311 315 316 316 315 315 317 313 313
nan nan nan nan nan nan nan nan nan nan nan nan nan nan nan nan nan nan nan nan nan nan nan nan nan nan nan nan 186 189 156 156 160 159 167 75 59 58 58 29 348 344 352 354 349 344 338 333 331 336 333 307 292 290 297 301 300 298 299 311 319 323 318 313 314 320 324 325 326 325 329 330 323 321 320 319 319 316 319 319 320 318 317 314 315 317
nan nan nan nan nan nan nan nan nan nan nan nan nan nan nan nan nan nan nan nan nan nan nan nan nan nan nan nan nan nan nan nan 121 154 156 178 180 136 110 348 320 335 357 356 349 345 338 335 341 344 338 320 301 301 302 304 300 294 296 309 320 323 315 311 314 321 326 328 326 325 329 329 323 323 322 321 323 323 323 322 323 322 320 320 323 321
nan nan nan nan nan nan nan nan nan nan nan nan nan nan nan nan nan nan nan nan nan nan nan nan nan nan nan nan nan nan nan 170 nan nan 188 222 224 230 259 297 357 18 7 353 342 342 340 341 348 346 338 329 320 317 310 302 300 295 301 306 315 316 312 313 318 321 327 321 325 327 331 329 324 325 323 326 327 324 324 322 322 320 319 320 321 320
nan nan nan nan nan nan nan nan nan nan nan nan nan nan nan nan nan nan nan nan nan nan nan nan nan nan nan 182 nan nan nan nan nan nan nan nan 263 269 287 316 347 7 7 356 353 351 348 346 345 341 337 333 327 324 314 310 302 302 303 305 309 312 308 311 317 321 322 320 320 333 336 334 328 324 326 326 325 322 322 320 320 320 319 318 315 314
nan nan nan nan nan nan nan nan nan nan nan nan nan nan nan nan nan nan nan nan nan nan nan nan nan nan nan nan nan nan nan nan nan nan nan nan nan 286 320 341 354 3 1 349 350 346 342 342 342 340 337 336 334 328 326 321 316 316 308 305 307 305 303 309 317 319 316 320 329 337 335 330 328 330 332 330 327 324 321 320 320 320 320 317 313 312
nan nan nan nan nan nan nan nan nan nan nan nan nan nan nan nan nan nan nan nan nan nan nan nan nan nan nan nan 227 nan nan nan nan nan nan nan 289 329 360 351 355 359 356 345 339 331 333 341 344 342 340 340 337 337 335 332 327 320 313 310 307 303 307 309 310 316 318 328 338 334 331 330 329 331 333 329 325 323 322 321 320 320 319 319 316 313
nan nan nan nan nan nan nan nan nan nan nan nan nan nan nan nan nan 226 nan nan nan nan nan nan nan nan nan nan nan nan nan nan 202 264 nan nan nan 8 5 356 352 351 342 337 340 327 328 336 341 340 340 340 337 333 334 336 332 326 319 313 314 318 322 316 310 315 318 332 327 323 325 330 330 331 328 324 324 324 325 324 323 324 323 319 315 311
nan nan nan nan nan nan nan nan nan nan nan nan nan nan nan nan nan nan nan nan nan nan nan nan nan nan nan nan nan nan nan 219 192 236 291 nan nan 355 352 345 339 337 337 336 334 330 331 339 344 341 337 336 335 334 336 339 339 348 344 329 325 323 314 316 321 323 331 336 328 319 321 327 329 328 324 321 323 324 326 324 323 324 321 318 313 312
nan nan nan nan nan nan nan nan nan nan nan nan nan nan nan nan nan nan nan nan nan nan nan nan nan nan nan nan nan nan nan 244 225 244 276 306 nan 352 342 330 325 330 324 320 323 325 328 334 337 335 333 333 331 329 334 336 341 351 348 343 337 329 328 329 327 325 333 327 326 323 326 329 328 328 323 322 324 325 325 322 321 321 318 313 314 312
nan nan nan nan nan nan nan nan nan nan nan nan nan nan nan nan nan nan nan nan nan nan nan nan nan nan nan nan nan nan nan nan 261 277 270 274 307 321 316 320 310 312 316 313 314 315 317 320 322 323 324 325 325 330 335 336 338 344 347 349 345 341 331 335 329 333 338 326 318 327 331 331 328 326 323 324 324 326 324 319 319 318 314 317 315 313
nan nan nan nan nan nan nan nan nan nan nan nan nan nan nan nan nan nan nan nan nan nan nan nan nan nan 255 nan nan nan nan nan nan nan nan 237 247 274 293 304 297 298 303 302 296 299 301 306 312 317 322 328 333 333 338 339 340 342 349 348 343 340 342 343 344 340 327 318 318 330 331 327 328 328 327 327 324 325 320 319 318 315 316 315 313 312
nan nan nan nan nan nan nan nan nan nan nan nan nan nan nan nan nan nan nan nan nan nan nan nan nan nan nan 250 nan nan 237 237 nan nan nan nan 242 264 nan 289 287 290 296 290 277 274 280 291 300 304 313 320 324 327 336 339 339 341 344 345 341 344 346 347 346 338 326 321 326 331 327 327 328 330 331 330 325 323 319 316 313 312 313 310 nan nan
nan nan nan nan nan nan nan nan nan nan nan nan nan nan nan nan nan nan nan nan nan nan nan nan nan nan nan 250 nan nan nan nan nan nan nan 246 241 262 272 274 274 278 282 287 276 274 280 290 300 305 312 319 324 327 333 338 339 341 341 343 345 344 347 345 341 335 327 326 328 327 325 327 327 331 332 331 325 322 314 313 312 313 314 314 nan nan
nan nan nan nan nan nan nan nan nan nan nan nan nan nan nan nan nan nan nan nan nan nan nan nan nan nan 248 246 nan nan nan nan nan nan nan nan 243 258 265 264 267 276 284 286 277 278 293 289 288 295 304 309 317 325 329 332 336 338 336 341 342 342 342 344 339 337 329 327 327 325 328 329 330 334 334 328 322 318 315 314 314 315 315 319 nan nan
nan nan nan nan nan nan nan nan nan nan nan nan nan nan nan nan nan nan nan nan nan nan nan nan nan nan nan nan nan nan 255 nan nan 270 281 275 249 252 260 257 260 266 274 284 283 277 269 276 294 301 303 311 320 322 324 330 332 333 331 336 341 340 337 337 337 335 331 329 330 327 333 333 333 333 332 323 315 311 311 313 315 318 318 nan nan nan
nan nan nan nan nan nan nan nan nan nan nan nan nan nan nan nan nan nan nan nan nan nan nan nan nan nan nan nan nan 256 257 255 255 261 269 270 260 259 259 254 248 255 264 266 270 277 286 285 287 294 302 305 308 309 314 322 325 325 326 331 336 339 337 335 339 336 334 332 330 331 336 336 332 330 325 315 307 314 316 312 313 315 313 310 nan nan
nan nan nan nan nan nan nan nan nan nan nan nan nan nan nan nan nan nan nan nan nan nan nan nan nan nan nan nan nan 259 264 269 274 282 286 268 249 250 256 259 260 265 268 277 281 277 279 287 290 294 297 299 301 306 314 317 322 322 322 328 331 336 342 340 338 340 339 334 332 333 332 328 326 326 318 316 322 321 309 309 312 315 314 308 nan nan
nan nan nan nan nan nan nan nan nan nan nan nan nan nan nan nan nan nan nan nan nan nan nan nan nan nan nan nan nan nan 264 269 264 249 246 257 258 253 259 257 257 264 277 288 294 293 289 291 292 295 296 299 308 310 312 315 318 324 328 327 324 326 332 328 331 332 332 333 333 327 324 325 324 324 322 323 326 322 316 313 315 312 313 nan nan 309
nan nan 238 nan nan nan nan nan nan nan nan nan nan nan nan nan nan nan nan nan nan nan nan nan 247 242 nan nan nan 245 245 nan nan nan nan 261 252 255 265 267 264 271 282 287 286 291 290 292 295 298 301 306 313 317 315 313 312 316 326 323 322 322 322 320 322 322 324 327 325 322 322 325 328 326 327 327 323 316 315 319 315 312 311 312 nan 306
nan 236 nan nan nan nan nan nan nan nan nan nan nan nan nan nan nan nan nan nan nan nan nan nan nan nan nan nan nan nan 242 246 241 228 234 244 253 260 272 275 275 277 285 291 289 286 286 293 297 304 309 310 311 312 310 308 312 318 325 320 323 325 322 322 321 321 321 322 319 321 324 326 327 328 328 325 323 319 313 316 316 316 313 306 297 306
228 nan nan nan nan nan nan nan nan nan nan nan nan nan nan nan nan nan nan nan nan nan nan nan nan nan nan 236 nan nan nan 242 224 214 218 232 242 253 265 278 281 280 284 288 289 289 293 298 302 306 304 301 302 305 307 304 308 317 319 322 325 323 322 321 319 317 317 317 320 323 324 323 325 325 327 324 322 315 310 312 315 317 318 315 305 313
nan nan nan nan nan nan nan nan nan nan nan nan nan nan nan nan nan nan nan nan nan nan nan nan nan nan nan 237 nan 243 246 237 224 213 217 221 238 245 252 257 264 273 281 285 285 288 290 288 289 293 295 294 295 295 295 306 313 314 313 314 315 320 320 320 319 317 315 313 318 321 322 322 322 322 324 322 318 314 314 314 318 320 315 310 312 327
nan nan nan nan nan nan nan nan nan nan nan nan nan nan nan nan nan nan nan nan nan nan nan nan nan nan 236 nan nan 240 233 226 219 213 215 nan 232 239 248 247 252 266 275 276 277 279 278 281 282 283 284 291 296 296 298 302 303 301 304 308 313 315 316 318 318 316 313 312 313 315 318 319 319 319 319 318 319 315 316 314 319 319 316 317 322 328
nan nan nan nan nan nan nan nan nan nan nan nan nan nan nan nan nan nan nan nan nan nan nan nan nan nan 232 231 nan 225 225 227 nan 222 219 218 225 241 256 258 267 268 268 269 273 273 276 280 282 286 290 290 289 290 294 296 297 299 301 305 308 309 313 314 315 314 311 309 310 313 315 317 318 321 315 315 313 310 307 313 319 320 320 322 324 327
nan nan nan nan nan nan 227 nan nan 219 nan nan nan nan nan nan nan nan nan nan nan nan nan nan nan nan nan nan nan nan 229 nan 225 223 nan nan nan 225 238 252 261 259 251 249 258 264 266 272 276 280 279 280 282 284 286 286 290 294 297 302 305 306 308 310 312 311 309 309 310 312 313 315 319 317 313 314 313 311 310 313 317 320 320 322 325 329
240 nan nan nan nan nan nan nan nan nan nan nan nan nan nan nan nan nan nan nan nan nan nan nan nan 231 233 nan nan nan 237 nan nan 224 227 230 nan 236 240 244 248 249 252 255 252 258 261 263 266 269 274 276 273 272 274 278 285 291 296 298 300 303 305 308 310 307 307 309 310 312 312 312 313 312 313 312 314 311 308 311 315 318 318 321 326 nan
nan nan 235 nan nan nan nan nan nan nan nan 227 225 219 nan nan nan nan nan nan 231 nan nan nan nan 231 237 240 242 243 240 nan 230 233 234 235 238 243 250 250 248 246 248 253 259 263 264 263 267 269 267 268 268 268 272 278 284 288 290 291 295 299 303 305 305 305 307 307 309 311 311 311 311 311 312 312 311 309 310 314 317 317 315 320 325 nan
241 236 nan 225 nan nan nan nan nan nan 227 226 219 nan nan nan nan nan nan nan 235 nan 226 nan nan 234 235 239 247 247 245 239 236 238 238 239 241 243 247 251 250 249 249 251 252 255 258 261 263 262 263 264 266 270 275 280 283 284 285 287 292 296 299 302 303 304 305 306 307 309 309 308 309 309 310 309 307 304 307 310 313 315 316 322 327 328
241 239 235 nan nan nan nan nan 229 230 233 225 nan nan nan nan nan 242 nan 234 225 222 nan nan nan nan 236 241 244 239 226 223 227 238 243 246 248 246 244 245 246 249 251 251 252 254 254 253 256 260 263 267 271 273 277 280 280 281 284 288 292 296 299 301 302 304 305 305 305 306 307 306 307 307 305 304 301 301 307 309 311 312 317 324 327 327
240 243 238 nan nan nan nan nan nan 225 233 nan nan nan nan nan nan 247 237 nan nan nan nan nan nan nan nan 236 236 235 236 236 238 240 244 248 253 254 254 253 252 249 249 252 255 258 258 258 261 264 265 267 269 272 275 278 280 284 287 288 293 297 299 302 303 304 305 306 304 304 305 304 302 304 303 300 301 304 306 307 309 312 319 323 325 324
245 nan 242 nan 218 nan nan nan nan nan 231 nan 202 207 230 226 233 236 231 226 222 225 227 227 230 231 234 238 237 238 239 242 246 247 247 248 252 256 258 258 258 258 259 259 257 257 260 259 260 261 264 266 268 270 271 274 279 284 286 289 294 297 300 301 303 304 305 305 305 305 305 305 306 307 303 301 305 307 307 305 307 312 317 322 325 322
248 nan 240 235 224 220 224 225 nan 223 nan nan nan 211 214 215 218 226 230 230 222 225 229 231 229 232 235 236 238 237 240 246 246 248 251 250 250 251 251 250 249 249 249 247 247 248 253 258 261 263 265 269 271 271 271 274 279 284 287 291 295 298 299 301 302 303 304 303 304 304 305 305 306 308 304 303 304 306 307 309 311 314 317 320 319 313
232 239 244 nan 233 223 223 222 nan nan 207 208 nan nan 211 211 217 223 231 231 230 224 225 232 234 232 235 239 235 236 239 238 240 239 242 241 242 245 247 244 243 243 243 245 249 253 256 261 266 266 267 269 272 274 277 281 284 287 289 293 297 299 299 299 299 301 301 300 301 302 302 303 304 306 304 305 306 306 306 311 311 313 314 311 312 309
236 240 246 242 235 222 nan nan nan 202 203 205 205 209 212 212 210 212 222 232 228 230 229 233 234 236 235 234 239 235 238 240 240 241 243 244 245 247 249 249 248 250 252 257 261 263 265 265 265 265 266 269 273 277 281 284 285 287 289 293 296 296 296 296 297 297 297 297 299 301 301 302 303 305 304 304 304 305 303 308 311 313 311 309 308 307
238 nan nan 241 235 nan nan 222 nan nan 203 207 204 nan nan nan nan nan nan nan nan nan nan 231 233 nan 233 233 235 238 239 241 246 246 245 245 245 247 248 249 248 249 252 257 262 267 265 264 264 266 269 273 277 280 282 284 284 285 289 292 293 294 294 294 294 293 294 296 297 298 299 299 299 299 301 303 303 303 305 306 308 310 310 310 306 302
237 224 nan 243 242 222 nan 243 nan nan 206 nan nan nan nan nan nan nan nan nan 218 221 224 225 229 nan 232 233 232 236 237 238 241 241 242 243 245 245 243 242 241 243 242 244 249 255 257 259 265 271 276 279 282 283 283 284 285 287 289 289 290 290 290 291 291 292 293 296 297 297 297 297 299 300 297 299 301 302 303 304 306 307 307 305 302 301
218 nan 233 nan 239 nan nan 226 nan nan nan nan nan nan nan nan nan nan nan nan nan nan nan nan 225 nan nan 234 234 236 237 236 236 238 239 239 239 239 238 239 241 243 244 242 243 247 254 262 269 274 278 280 282 284 283 283 284 286 287 287 287 287 289 290 291 291 292 294 295 295 294 295 295 296 296 293 286 282 282 286 291 294 297 292 297 300
nan nan nan nan 245 nan 248 nan nan nan nan nan nan nan nan nan nan nan nan nan nan nan nan nan nan nan nan nan 238 241 239 236 235 237 237 236 237 239 242 244 246 246 246 247 249 252 258 264 270 274 276 279 283 285 285 284 283 283 284 284 286 289 290 291 291 291 291 292 293 292 293 292 293 292 289 289 288 289 287 283 284 285 291 295 289 284
218 nan nan nan nan nan nan nan nan nan nan nan nan nan nan nan nan nan nan nan nan nan nan nan nan nan nan 230 233 238 237 235 233 nan nan nan 239 243 246 248 250 251 252 254 257 260 263 266 269 272 277 281 283 285 285 284 282 281 281 284 287 291 290 290 289 290 290 290 290 290 291 291 291 287 287 288 nan 292 293 294 289 282 281 284 286 286